Location: Feigenhofen
(48.4939°N, 10.7793°E)
Time: 22:14:40
(UTC+00:00)

Meteor 2-5 Rocket - Pass Details

Date: 26 May 2022
Orbit: 832 x 912 km, 81.2° (Epoch: 24 June)

Event Time Altitude Azimuth Distance (km) Brightness Sun altitude
Exits shadow 00:55:39 25° 185° (S) 1,699 4.7 -16.8°
Maximum altitude 00:59:10 83° 99° (E) 883 3.8 -16.5°
Drops below altitude 10° 01:04:51 10° 13° (NNE) 2,502 7.4 -16.1°
Sets 01:07:16 0° 13° (NNE) 3,431 8.4 -15.9°
